Regional Weather Roundup
Issued by NWS

Home | Current Version | Previous Version | Text Only | Print | Product List | Glossary Off
Versions: 1 2 3 4 5 6 7 8 9 10 11 12 13 14 15 16 17 18 19 20 21 22 23 24 25 26 27 28 29 30 31 32 33 34 35 36 37 38 39 40 41 42 43 44 45 46 47 48 49 50

000
ASUS43 KMKX 041721
RWRWI

WISCONSIN REGIONAL WEATHER ROUNDUP
NATIONAL WEATHER SERVICE MILWAUKEE/SULLIVAN WI
1100 AM CST WED MAR 04 2015

NOTE: "FAIR" INDICATES FEW OR NO CLOUDS BELOW 12,000 FEET WITH NO
SIGNIFICANT WEATHER AND/OR OBSTRUCTIONS TO VISIBILITY.

WIZ001-002-006>008-014>016-023>028-041800-
NORTHWEST WISCONSIN

CITY           SKY/WX    TMP DP  RH WIND       PRES   REMARKS
SUPERIOR ARPT  CLOUDY     3  -9  56 W13       30.16R WCI -14
ASHLAND        PTSUNNY    4 -10  52 W14G22    30.12R WCI -14
HAYWARD        CLOUDY     2 -11  54 VRB6      30.10R WCI  -9
SIREN          SUNNY      5 -12  44 NW21G26   30.15S WCI -16
CUMBERLAND     LGT SNOW   3 -11  51 W17G24    30.12S VSB 3/4 WCI -17
RICE LAKE      SUNNY      4 -11  48 W14G20    30.16R WCI -13
CHETEK         SUNNY      6 -10  48 MISG      30.15S
LADYSMITH      SUNNY      5  -9  51 W15       30.11S WCI -13
EAU CLAIRE     SUNNY      6  -9  50 W13G26    30.18R WCI -10
MENOMONIE      SUNNY      8  -8  49 W16       30.20R WCI -10
NEW RICHMOND   MOSUNNY    7  -8  50 W13G18    30.19S WCI -10
OSCEOLA        SUNNY      7  -9  47 W16G26    30.23R WCI -11
$$

WIZ003>005-009-010-017-018-041800-
NORTH CENTRAL WISCONSIN

CITY           SKY/WX    TMP DP  RH WIND       PRES   REMARKS
MANITOWISH WTR CLOUDY     0 -11  60 NW12G20   29.99S WCI -17
ARBOR VITAE    PTSUNNY    3  -9  57 W12G20    29.99S WCI -14
WOODRUFF       PTSUNNY    3  -9  57 W12G20    29.99S WCI -14
RHINELANDER    PTSUNNY    3 -10  54 W17G24    29.99S WCI -17
EAGLE RIVER    CLOUDY     2 -11  56 W17       29.98R HAZE    WCI -18
LAND O LAKES   CLOUDY     3 -11  50 W10G18    29.97S WCI -12
PHILLIPS       PTSUNNY    3 -11  52 W8        30.03S WCI -11
TOMAHAWK       SUNNY      4 -10  51 W16       30.03R WCI -15
MEDFORD        SUNNY      4 -10  53 W13G20    30.05S WCI -13
MERRILL        SUNNY      6 -10  47 NW15      30.05R HAZE    WCI -12
$$

WIZ029-030-035-036-043>047-041800-
CENTRAL WISCONSIN

CITY           SKY/WX    TMP DP  RH WIND       PRES   REMARKS
WAUSAU         SUNNY      4  -8  57 W21G28    30.06R WCI -17
MOSINEE        SUNNY      3  -6  66 W20       30.08R WCI -18
MARSHFIELD     SUNNY      5 -10  50 NW22      30.10R WCI -16
STEVENS POINT  SUNNY      5  -9  51 W14G21    30.10S WCI -12
WAUPACA        SUNNY     12  -5  46 W17G23    30.12R WCI  -5
WAUTOMA        SUNNY     11  -5  48 NW17G24   30.15R WCI  -6
WISC RAPIDS    SUNNY      9  -7  48 NW16G22   30.14R WCI  -8
CAMP DOUGLAS   MOSUNNY   10  -4  52 W16       30.17R WCI  -7
$$

WIZ011>013-019>022-031-037>040-048>050-041800-
NORTHEAST WISCONSIN

CITY           SKY/WX    TMP DP  RH WIND       PRES   REMARKS
ANTIGO         SUNNY      4  -9  56 W15G21    30.01R WCI -14
SHAWANO        SUNNY     12  -8  41 W13G23    30.08R WCI  -3
OCONTO         SUNNY     11  -7  45 W13G18    30.06S WCI  -5
STURGEON BAY   SUNNY     10  -6  48 W16G22    30.05R WCI  -7
GREEN BAY      SUNNY     11  -4  51 W18       30.09R WCI  -7
MANITOWOC      SUNNY     14  -1  51 NW20G25   30.08R WCI  -3
APPLETON       NOT AVBL
CLINTONVILLE   SUNNY     10  -6  48 W14G21    30.09R WCI  -5
OSHKOSH        SUNNY     11  -3  53 W18G25    30.11R WCI  -7
$$

WIZ032>034-041-042-053>061-041800-
SOUTHWEST WISCONSIN

CITY           SKY/WX    TMP DP  RH WIND       PRES   REMARKS
LA CROSSE      SUNNY     12  -5  46 NW15G23   30.24R WCI  -4
SPARTA         SUNNY     11  -6  46 NW14      30.21R WCI  -4
VIROQUA        SUNNY      9  -5  53 W10       30.17R WCI  -5
BOSCOBEL       MIX PCPN  13  -4  46 NW12G18   30.24R WCI  -1
PRAIRIE DU CHI SUNNY     12  -6  44 NW16      30.26S WCI  -5
PLATTEVILLE    SUNNY     12  -1  56 W13       30.18R WCI  -3
$$

WIZ056-057-062-063-064-067-068-041800-
SOUTH CENTRAL WISCONSIN

CITY           SKY/WX    TMP DP  RH WIND       PRES   REMARKS
REEDSBURG      SUNNY     11  -2  54 NW15G21   30.17R WCI  -5
BARABOO/DELLS  SUNNY     11  -3  52 W14       30.14S WCI  -4
LONE ROCK      SUNNY     14  -6  40 NW17      30.20R WCI  -3
MINERAL POINT  SUNNY     14   0  52 W13       30.15R WCI   0
MADISON        MOSUNNY   15  -3  44 NW14G22   30.14R WCI   0
MIDDLETON      SUNNY     17  -2  44 NW12      30.15R WCI   4
WATERTOWN      SUNNY     14   2  57 NW12      30.12R WCI   1
MONROE         SUNNY     16   3  57 NW15      30.14R WCI   1
JANESVILLE     SUNNY     16   3  57 NW17      30.15R WCI   0
$$

WIZ051-052-058>065-066-070>072-041800-
SOUTHEAST WISCONSIN

CITY           SKY/WX    TMP DP  RH WIND       PRES   REMARKS
MILWAUKEE      PTSUNNY   16  -1  47 W18G26    30.11R WCI   0
WAUKESHA       MOSUNNY   12  -2  52 W18       30.12R WCI  -5
MILWAUKEE/TIMM SUNNY     16   0  48 W17       30.11R WCI   0
RACINE         SUNNY     16   0  49 W15G21    30.13R WCI   1
BURLINGTON     SUNNY     14  -1  52 NW18      30.13R WCI  -3
KENOSHA        SUNNY     16   0  49 NW16G24   30.12R WCI   1
FOND DU LAC    SUNNY     13  -2  51 NW17G25   30.11R WCI  -4
SHEBOYGAN      SUNNY     12  -2  53 W14G23    30.08R WCI  -3
WEST BEND      SUNNY     14   0  52 W13G20    30.09F WCI   0
JUNEAU         SUNNY     11  -2  55 W8G18     30.12S WCI   0
$$

LSZ147-162-041800-
LAKE SUPERIOR

STATION/POSITION TIME  TEMP    WIND        PRES    WAVE
                       AIR SEA DIR/SP/G            HT/PER
                 (UTC) (F)     (DEG/KT/KT) (MB)    (FT/S)
DEVILS ISLAND    1700    3     280/ 17/ 25 1020.9R
PORT WING        1600    2     260/ 13/ 17 1020.3R
SAXON HARBOR     1640    4     300/ 10/ 16 1019.6R
$$

LMZ867-665-643>646-041800-
LAKE MICHIGAN

STATION/POSITION TIME  TEMP    WIND        PRES    WAVE
                       AIR SEA DIR/SP/G            HT/PER
                 (UTC) (F)     (DEG/KT/KT) (MB)    (FT/S)
NORTHPORT PIER   1707   11     300/ 11/ 17 1016.6S
SISTER BAY       1643   16     310/ 14/ 15   N/A
KEWAUNEE LAKESHO 1600   10     290/ 13/ 19 1016.5R
SHEBOYGAN LAKESH 1700   11     300/ 21/ 26 1020.2R
PORT WASHINGTON  1620   14     290/ 12/ 22 1020.3R
MILWAUKEE LAKESH 1700   15     290/ 13/ 18   N/A
KENOSHA   LAKESH 1700   15     310/ 13/ 17 1020.0R
$$

TC  - TEMPERATURE IN CELSIUS
VSB - VISIBILITY IN STATUTE MILES
WCI - WIND CHILL INDEX
HX  - HEAT INDEX



USA.gov is the U.S. government's official web portal to all federal, state and local government web resources and services.